Flag for U.S.A. Weather past 2 weeks in Salem, Oregon, U.S.A.

Now
54 °F

Overcast.


Feels Like: 54 °F
Forecast: 51 / 64 °F
Wind: No wind

Location: McNary Field

Current Time: May 23, 2015 at 1:13:53 AM

Latest Report: May 23, 2015 at 12:56 AM


Visibility: 10 mi

Pressure: 30.12 "Hg

Humidity: 80%

Dew point: 48 °F

Location of SalemLocation

Historic Weather in Salem — Graph

°F

Salem temperature yesterday

Maximum temperature yesterday: 61 °F (at 2:56 PM)
Minimum temperature yesterday: 54 °F (at 5:56 AM)
Average temperature yesterday: 57 °F

Past Weeks' High & Low Weather Summary

 TemperatureHumidityPressure
High83 °F (May 9, 4:56 PM)93% (May 11, 4:56 AM)30.12 "Hg (May 11, 4:56 AM)
Low43 °F (May 8, 5:56 AM)18% (May 8, 6:56 PM)29.78 "Hg (May 14, 6:56 PM)
Average58 °F70%29.97 "Hg
* Reported May 7 11:56 PM — May 22 11:56 PM, Salem, Weather by CustomWeather, © 2015

Note: Actual official high and low records may vary slightly from our data, if they occured in-between our weather recording intervals... More about our weather records

Advertising

Salem weather history for previous 24 hours

 ConditionsComfort  
Time TempWeatherWind HumidityBarometerVisibility
11:56 PM
Fri, May 22
55 °FOvercast.3 mph74%30.11 "Hg10 mi
10:56 PM54 °FMostly cloudy.No wind80%30.10 "Hg10 mi
9:56 PM55 °FLight rain. Overcast.8 mph80%30.09 "Hg10 mi
9:04 PM56 °FMostly cloudy.5 mph77%30.07 "Hg10 mi
8:03 PM59 °FCloudy.8 mph75%30.06 "Hg10 mi
6:56 PM58 °FLight rain. Overcast.3 mph84%30.05 "Hg10 mi
5:56 PM58 °FMostly cloudy.3 mph81%30.05 "Hg10 mi
4:56 PM59 °FMostly cloudy.5 mph72%30.05 "Hg10 mi
3:56 PM61 °FMostly cloudy.8 mph67%30.04 "Hg10 mi
2:56 PM61 °FMore clouds than sun.7 mph70%30.04 "Hg10 mi
1:56 PM60 °FMostly cloudy.5 mph75%30.04 "Hg10 mi
12:56 PM59 °FMostly cloudy.5 mph78%30.03 "Hg10 mi
11:56 AM59 °FMostly cloudy.3 mph75%30.03 "Hg10 mi
10:56 AM57 °FOvercast.3 mph78%30.03 "Hg10 mi
9:56 AM56 °FOvercast.6 mph81%30.02 "Hg10 mi
8:56 AM55 °FOvercast.3 mph87%30.01 "Hg10 mi
7:56 AM55 °FMostly cloudy.6 mph80%30.00 "Hg10 mi
6:56 AM54 °FOvercast.5 mph86%29.99 "Hg10 mi
5:56 AM54 °FLight rain. Overcast.3 mph90%29.98 "Hg10 mi
4:56 AM55 °FOvercast.No wind87%29.96 "Hg10 mi
3:56 AM55 °FOvercast.3 mph87%29.96 "Hg10 mi
2:56 AM55 °FOvercast.5 mph83%29.95 "Hg10 mi
1:56 AM55 °FOvercast.3 mph90%29.93 "Hg10 mi
Weather by CustomWeather, © 2015

See weather overviewHow to use our weather pages